[[{"header":{"parameterUnit":"m.s-1","parameterCategory":1,"la1":30.2991,"la2":30.254,"lo1":-89.0895,"lo2":-89.0444,"dy":0.0017,"dx":0.0017,"nx":28,"ny":28,"refTime":"2024-02-04T03:00:00:Z","depth":0,"parameterNumber":2,"parameterNumberName":"U-component_of_WINDS"},"data":[0,0,0,0,0,0,0,0,0,0,0,0,0,0,0,0,0,0,0,0,0,0,0,0,0,0,0,0,0,0,0,0,0,0,0,0,0,0,0,0,0,0,0,0,0,0,0,0,0,0,0,0,0,0,0,0,0,0,0.6354,0.6353,0,0.6257,0.6256,0.6255,0.6206,0.6206,0.6206,0.6206,0.6105,0.6103,0.61,0,0,0,0,0,0,0,0,0,0,0,0,0,0.6499,0.6497,0.6354,0.6353,0.6352,0.6257,0.6256,0.6254,0.6206,0.6206,0.6206,0.6206,0.6106,0.6103,0.61,0,0,0,0,0,0,0,0,0,0,0,0,0,0.6422,0.6496,0.6355,0.6316,0.6312,0.6257,0.6256,0.6254,0.6206,0.6206,0.6206,0.6206,0.6107,0.6103,0.61,0.6076,0,0,0.6087,0.6086,0,0,0,0,0,0,0,0,0.6427,0.6417,0.6323,0.6319,0.6314,0.6243,0.627,0.6194,0.6206,0.6246,0.6206,0.6206,0.6151,0.6144,0.6125,0.6071,0.6067,0.6087,0.6085,0.6083,0.6082,0,0,0,0,0,0,0,0.6432,0.6421,0.6316,0.6322,0.6316,0.6304,0.6293,0.6255,0.62,0.6242,0.6239,0.6228,0.6149,0.6129,0.6123,0.6065,0.6087,0.6084,0.6081,0.608,0.5987,0.5986,0,0,0,0,0,0,0.6444,0.6426,0.6319,0.6313,0.6371,0.6301,0.6289,0.6266,0.62,0.619,0.6228,0.6226,0.6136,0.6127,0.6119,0.6087,0.6083,0.6079,0.6077,0.5987,0.5986,0.5986,0,0,0,0,0,0,0.6447,0.6434,0.6323,0.6368,0.6353,0.6299,0.6273,0.6264,0.6245,0.6189,0.6179,0.6218,0.6136,0.6125,0.6087,0.6082,0.6077,0.6074,0.5987,0.5987,0.5986,0.6022,0,0,0,0,0,0,0.6451,0.6436,0.6426,0.6368,0.6351,0.6292,0.6273,0.6262,0.6238,0.6234,0.6178,0.6168,0.6135,0.6093,0.6083,0.6077,0.6071,0.5987,0.5987,0.5986,0.6021,0.6023,0.6025,0,0,0,0,0,0.6457,0.644,0.6426,0.6413,0.6337,0.6292,0.6282,0.6244,0.6238,0.6227,0.6192,0.617,0.6085,0.609,0.6078,0.607,0.5987,0.5987,0.5987,0.602,0.6022,0.6025,0,0,0,0,0,0,0.6498,0.6431,0.6415,0.6379,0.6342,0.6284,0.6269,0.6248,0.6211,0.6209,0.6164,0.6152,0.6118,0.6091,0.6097,0.6044,0.6034,0.6031,0.6063,0.6065,0.6067,0.6074,0.6067,0,0,0,0,0,0.6503,0.6472,0.6415,0.6389,0.6371,0.6324,0.6302,0.6277,0.6236,0.622,0.6182,0.6143,0.6107,0.6085,0.6049,0.6017,0.6004,0.6006,0.6008,0.601,0.6008,0.5989,0.599,0.5986,0.5986,0.5986,0,0,0.6513,0.6472,0.6455,0.6396,0.6364,0.6333,0.631,0.6278,0.6254,0.6215,0.6177,0.6148,0.6102,0.6067,0.6049,0.6042,0.6007,0.601,0.6012,0.6009,0.5989,0.599,0.599,0.5986,0.5986,0.5986,0,0,0.6514,0.6481,0.6455,0.6424,0.6376,0.6345,0.6339,0.6284,0.6263,0.6225,0.6195,0.6166,0.6106,0.6074,0.605,0.6042,0.602,0.6032,0.6042,0.6024,0.6024,0.6024,0.6021,0.602,0.603,0.603,0.603,0,0.6532,0.6484,0.6445,0.6414,0.6389,0.6353,0.6327,0.6298,0.6241,0.6224,0.6218,0.6142,0.6109,0.6066,0.6064,0.6046,0.6038,0.6037,0.6027,0.6027,0.6026,0.6023,0.6022,0.6032,0.6032,0.6032,0.6032,0,0.6508,0.6475,0.646,0.6406,0.638,0.6352,0.6309,0.6287,0.6264,0.6234,0.6196,0.6154,0.611,0.6098,0.6075,0.6052,0.605,0.6036,0.6024,0.6029,0.6025,0.6023,0.6034,0.6034,0.6033,0.6033,0,0,0.6531,0.6457,0.6453,0.6428,0.6373,0.6346,0.6317,0.6274,0.6256,0.6218,0.6193,0.6143,0.6131,0.6104,0.6077,0.6062,0.6058,0.605,0.6048,0.6053,0.603,0.604,0.6039,0.6044,0.6044,0.6043,0.6034,0,0.6525,0.647,0.6435,0.6395,0.6364,0.633,0.6304,0.6268,0.6239,0.6209,0.6178,0.6143,0.6129,0.6113,0.6096,0.6062,0.6053,0.6062,0.6019,0.6018,0.6031,0.6037,0.6047,0.604,0.6032,0.6032,0.6032,0,0.6509,0.6473,0.643,0.6379,0.6364,0.6342,0.63,0.6272,0.623,0.6211,0.6182,0.6155,0.6123,0.6116,0.6071,0.6078,0.6059,0.604,0.6039,0.6032,0.6024,0.603,0.6037,0.6036,0.6029,0.6029,0.6029,0,0.653,0.6471,0.6437,0.6417,0.6357,0.6342,0.6316,0.6275,0.6251,0.6215,0.6199,0.616,0.6138,0.6108,0.6072,0.607,0.6031,0.6021,0.6014,0.6015,0.6006,0.6007,0.601,0.5995,0.5995,0.5996,0.5996,0,0.6526,0.6501,0.6446,0.6425,0.6396,0.6356,0.6328,0.63,0.6264,0.6237,0.6205,0.6181,0.6135,0.6105,0.6077,0.6044,0.6035,0.6018,0.6011,0.602,0.6022,0.6006,0.6005,0.5995,0.5995,0.5995,0.5995,0,0.6544,0.6506,0.6467,0.6414,0.64,0.6381,0.6335,0.6314,0.6284,0.6251,0.6241,0.6194,0.6158,0.6119,0.6069,0.605,0.6019,0.6009,0.6033,0.6029,0.6024,0.6025,0.6015,0.6012,0.6001,0.6001,0.6002,0,0.6543,0.6523,0.6468,0.6448,0.6423,0.6391,0.6367,0.6328,0.6304,0.6256,0.6241,0.6202,0.6169,0.6112,0.6074,0.6036,0.6024,0.6024,0.6018,0.6029,0.6024,0.6025,0.6023,0.6025,0.6026,0.6026,0.6026,0,0.6546,0.6529,0.6495,0.6456,0.6428,0.6395,0.6361,0.6347,0.6301,0.6276,0.6238,0.6213,0.6162,0.6124,0.6082,0.6055,0.6033,0.6028,0.6025,0.6034,0.6048,0.604,0.6037,0.6028,0.6028,0.6028,0.6028,0.6028,0.6554,0.6535,0.6493,0.6457,0.6428,0.6397,0.6374,0.6342,0.631,0.6266,0.6245,0.6207,0.6167,0.6108,0.6083,0.6053,0.6046,0.6041,0.6039,0.6039,0.6041,0.6054,0.6045,0.6045,0.6045,0.6045,0.6045,0,0.6555,0.6527,0.6494,0.6448,0.642,0.6402,0.6363,0.6341,0.6308,0.6273,0.6241,0.6198,0.6161,0.6121,0.6082,0.6066,0.6055,0.6057,0.6057,0.6052,0.6049,0.6056,0.6067,0.6067,0.6067,0.6067,0.6067,0.6067,0.6552,0.6518,0.6496,0.6447,0.6419,0.6382,0.6362,0.6333,0.6305,0.6258,0.6227,0.6202,0.6164,0.6122,0.6088,0.6077,0.6064,0.6069,0.6055,0.6053,0.6052,0.605,0.6056,0.6067,0.6067,0.606,0.606,0.606]},{"header":{"parameterUnit":"m.s-1","parameterCategory":1,"la1":30.2991,"la2":30.254,"lo1":-89.0895,"lo2":-89.0444,"dy":0.0017,"dx":0.0017,"nx":28,"ny":28,"refTime":"2024-02-04T03:00:00:Z","depth":0,"parameterNumber":3,"parameterNumberName":"V-component_of_WINDS"},"data":[0,0,0,0,0,0,0,0,0,0,0,0,0,0,0,0,0,0,0,0,0,0,0,0,0,0,0,0,0,0,0,0,0,0,0,0,0,0,0,0,0,0,0,0,0,0,0,0,0,0,0,0,0,0,0,0,0,0,-7.3064,-7.3066,0,-7.329,-7.3293,-7.3295,-7.3293,-7.329,-7.3287,-7.3284,-7.3513,-7.3521,-7.353,0,0,0,0,0,0,0,0,0,0,0,0,0,-7.2628,-7.2636,-7.3063,-7.3066,-7.3069,-7.329,-7.3293,-7.3296,-7.3293,-7.3289,-7.3286,-7.3282,-7.351,-7.352,-7.3531,0,0,0,0,0,0,0,0,0,0,0,0,0,-7.2832,-7.2639,-7.3063,-7.3094,-7.31,-7.3289,-7.3293,-7.3297,-7.3294,-7.3289,-7.3285,-7.3281,-7.3506,-7.3519,-7.3532,-7.3705,0,0,-7.3573,-7.3579,0,0,0,0,0,0,0,0,-7.282,-7.2848,-7.3087,-7.3093,-7.3099,-7.3259,-7.3223,-7.3433,-7.3295,-7.322,-7.3284,-7.3278,-7.3432,-7.3451,-7.3503,-7.3715,-7.3725,-7.3574,-7.3582,-7.3588,-7.3592,0,0,0,0,0,0,0,-7.2806,-7.2838,-7.3153,-7.309,-7.3098,-7.3097,-7.3121,-7.3263,-7.3348,-7.3226,-7.3227,-7.3254,-7.3434,-7.349,-7.3508,-7.3729,-7.3574,-7.3586,-7.3594,-7.3599,-7.4097,-7.4102,0,0,0,0,0,0,-7.2786,-7.2826,-7.3146,-7.316,-7.2946,-7.3109,-7.3135,-7.3212,-7.3347,-7.3363,-7.3257,-7.3253,-7.347,-7.3493,-7.3516,-7.373,-7.3588,-7.3601,-7.3608,-7.4092,-7.4098,-7.4104,0,0,0,0,0,0,-7.2777,-7.2814,-7.3137,-7.2994,-7.3034,-7.3121,-7.3207,-7.3219,-7.3275,-7.337,-7.3385,-7.3299,-7.3467,-7.3498,-7.3659,-7.3737,-7.3607,-7.3619,-7.4085,-7.4094,-7.4101,-7.4155,0,0,0,0,0,0,-7.2764,-7.2811,-7.2877,-7.2995,-7.3042,-7.3276,-7.3211,-7.3226,-7.3298,-7.3294,-7.3413,-7.3429,-7.3466,-7.3639,-7.3672,-7.3753,-7.3629,-7.4079,-7.4089,-7.4098,-7.4147,-7.4164,-7.4179,0,0,0,0,0,-7.2749,-7.2883,-7.2881,-7.2919,-7.3127,-7.328,-7.3307,-7.3348,-7.3304,-7.3372,-7.3434,-7.3425,-7.3723,-7.3656,-7.3693,-7.3779,-7.4074,-7.4086,-7.4098,-7.414,-7.4161,-7.4178,0,0,0,0,0,0,-7.277,-7.2898,-7.2898,-7.3074,-7.3167,-7.328,-7.3366,-7.3368,-7.3474,-7.3466,-7.3511,-7.3538,-7.37,-7.3755,-7.3678,-7.3954,-7.3893,-7.3913,-7.3912,-7.3933,-7.3949,-7.3932,-7.364,0,0,0,0,0,-7.2796,-7.291,-7.3016,-7.3161,-7.3208,-7.3279,-7.3347,-7.3371,-7.3468,-7.3507,-7.358,-7.3674,-7.3789,-7.3864,-7.3975,-7.4155,-7.4181,-7.4232,-7.4248,-7.4261,-7.4278,-7.4379,-7.4404,-7.4142,-7.4142,-7.4142,0,0,-7.2849,-7.2934,-7.3003,-7.3168,-7.3242,-7.336,-7.3312,-7.3437,-7.3525,-7.3525,-7.3683,-7.374,-7.3848,-7.402,-7.41,-7.4072,-7.4356,-7.4276,-7.4285,-7.4295,-7.4394,-7.4419,-7.4441,-7.415,-7.4149,-7.4147,0,0,-7.3008,-7.3082,-7.3213,-7.3289,-7.3403,-7.345,-7.3481,-7.3595,-7.3634,-7.3793,-7.3796,-7.3901,-7.4098,-7.4176,-7.4241,-7.4431,-7.4428,-7.4466,-7.4549,-7.4648,-7.4668,-7.4687,-7.4757,-7.4781,-7.4482,-7.4482,-7.4482,0,-7.306,-7.3238,-7.3279,-7.3407,-7.348,-7.3487,-7.362,-7.3692,-7.3836,-7.3886,-7.3853,-7.4102,-7.4175,-7.4366,-7.4413,-7.4465,-7.4503,-7.4453,-7.4662,-7.4681,-7.4699,-7.4766,-7.4792,-7.4486,-7.4486,-7.4485,-7.4485,0,-7.3297,-7.3421,-7.3512,-7.3653,-7.3737,-7.3866,-7.3928,-7.4007,-7.4024,-7.4074,-7.4237,-7.4325,-7.4456,-7.4503,-7.4519,-7.4698,-7.4677,-7.4652,-7.4592,-7.4727,-7.4791,-7.4817,-7.4492,-7.449,-7.4489,-7.4488,0,0,-7.3475,-7.3639,-7.3672,-7.3738,-7.3865,-7.3961,-7.4091,-7.422,-7.4288,-7.4387,-7.4499,-7.4666,-7.4645,-7.4719,-7.4745,-7.4831,-7.4979,-7.4797,-7.48,-7.4829,-7.5184,-7.5203,-7.5232,-7.4977,-7.4983,-7.4987,-7.5175,0,-7.3648,-7.3881,-7.3923,-7.4126,-7.4242,-7.4252,-7.4365,-7.4456,-7.4507,-7.4613,-7.4668,-7.4788,-7.475,-7.4795,-7.4881,-7.4943,-7.5051,-7.493,-7.5082,-7.5087,-7.5057,-7.5265,-7.5285,-7.5459,-7.52,-7.5205,-7.5208,0,-7.3881,-7.3989,-7.4204,-7.4319,-7.4369,-7.447,-7.4593,-7.4694,-7.4797,-7.4828,-7.4912,-7.4929,-7.5065,-7.4998,-7.5187,-7.5103,-7.5168,-7.5208,-7.5216,-7.5233,-7.5156,-7.5289,-7.5515,-7.5542,-7.5247,-7.5244,-7.5241,0,-7.3992,-7.419,-7.4346,-7.4401,-7.4537,-7.4609,-7.4669,-7.4768,-7.4844,-7.4951,-7.5001,-7.5121,-7.5188,-7.5281,-7.533,-7.5276,-7.5516,-7.5452,-7.5547,-7.5546,-7.5598,-7.5594,-7.5839,-7.5637,-7.5636,-7.5636,-7.5635,0,-7.4182,-7.4313,-7.4398,-7.4493,-7.4642,-7.4689,-7.4835,-7.4893,-7.4982,-7.509,-7.5104,-7.5204,-7.5262,-7.5371,-7.5409,-7.5561,-7.559,-7.562,-7.5629,-7.562,-7.5617,-7.5664,-7.5654,-7.5643,-7.5641,-7.564,-7.5639,0,-7.4331,-7.4392,-7.4563,-7.4679,-7.4711,-7.4816,-7.4915,-7.5009,-7.506,-7.5196,-7.5231,-7.5312,-7.5441,-7.5499,-7.5657,-7.5684,-7.5858,-7.5857,-7.5823,-7.5827,-7.5919,-7.591,-7.6204,-7.6246,-7.6014,-7.6016,-7.6018,0,-7.4449,-7.4551,-7.4679,-7.4753,-7.4816,-7.4934,-7.5012,-7.5063,-7.5143,-7.527,-7.5349,-7.5479,-7.5586,-7.5792,-7.5864,-7.5986,-7.599,-7.6085,-7.6008,-7.5997,-7.5994,-7.5988,-7.5999,-7.6099,-7.6101,-7.6103,-7.6104,0,-7.4652,-7.4678,-7.4791,-7.4915,-7.5008,-7.5108,-7.5206,-7.5265,-7.5331,-7.5421,-7.5555,-7.5638,-7.5802,-7.5931,-7.6058,-7.6119,-7.6124,-7.6128,-7.6157,-7.6149,-7.6126,-7.6142,-7.5863,-7.6121,-7.6119,-7.6118,-7.6117,-7.6117,-7.4791,-7.4883,-7.4989,-7.5114,-7.5194,-7.5285,-7.538,-7.5444,-7.5557,-7.5695,-7.5718,-7.5861,-7.5963,-7.6135,-7.6201,-7.6313,-7.629,-7.6331,-7.6342,-7.6352,-7.6359,-7.6107,-7.6336,-7.6336,-7.6335,-7.6335,-7.6335,0,-7.4997,-7.5066,-7.5181,-7.5319,-7.5418,-7.5414,-7.5523,-7.5606,-7.5732,-7.5828,-7.5934,-7.6088,-7.6214,-7.6297,-7.6425,-7.6499,-7.6505,-7.6531,-7.6527,-7.6542,-7.6371,-7.6334,-7.6525,-7.6525,-7.6525,-7.6525,-7.6525,-7.6525,-7.5116,-7.5273,-7.5312,-7.5509,-7.5577,-7.5718,-7.5781,-7.5866,-7.5943,-7.6115,-7.6221,-7.6275,-7.6366,-7.6501,-7.6617,-7.6638,-7.6685,-7.6714,-7.6734,-7.6573,-7.6553,-7.6534,-7.65,-7.6723,-7.6723,-7.6896,-7.6897,-7.6899]}]]